| time (UTC) | temp F | wind direction | speed knots | gust knots | rain 1hr in | rain 24hr in | rain mn in | humidity % | barometer mb |
| 20260507192530 | 62 | 78 | 0.9 | 2.6 | 0.00 | 0.00 | 0.00 | 62 | 1019.7 |
| 20260507192032 | 62 | 78 | 0.9 | 2.6 | 0.00 | 0.00 | 0.00 | 62 | 1019.7 |
| 20260507191550 | 62 | 0 | 0.0 | 0.9 | 0.00 | 0.00 | 0.00 | 62 | 1019.7 |
| 20260507191030 | 62 | 0 | 0.0 | 0.9 | 0.00 | 0.00 | 0.00 | 61 | 1019.6 |
| 20260507190532 | 62 | 0 | 0.0 | 0.0 | 0.00 | 0.00 | 0.00 | 61 | 1019.7 |
| 20260507190043 | 63 | 0 | 0.0 | 1.7 | 0.00 | 0.00 | 0.00 | 60 | 1019.7 |
| 20260507185531 | 63 | 0 | 0.0 | 1.7 | 0.00 | 0.00 | 0.00 | 60 | 1019.7 |
| 20260507185032 | 63 | 0 | 0.0 | 0.0 | 0.00 | 0.00 | 0.00 | 60 | 1019.5 |
| 20260507184541 | 63 | 0 | 0.0 | 0.9 | 0.00 | 0.00 | 0.00 | 60 | 1019.4 |
| 20260507184030 | 64 | 0 | 0.0 | 0.9 | 0.00 | 0.00 | 0.00 | 59 | 1019.4 |
| 20260507183530 | 64 | 0 | 0.0 | 0.0 | 0.00 | 0.00 | 0.00 | 59 | 1019.4 |
| 20260507183041 | 65 | 0 | 0.0 | 0.0 | 0.00 | 0.00 | 0.00 | 59 | 1019.4 |
| 20260507182529 | 65 | 0 | 0.0 | 1.7 | 0.00 | 0.00 | 0.00 | 58 | 1019.2 |
| 20260507182030 | 65 | 0 | 0.0 | 1.7 | 0.00 | 0.00 | 0.00 | 57 | 1019.3 |
| 20260507181540 | 65 | 0 | 0.0 | 1.7 | 0.00 | 0.00 | 0.00 | 58 | 1019.3 |
| 20260507181033 | 66 | 0 | 0.0 | 0.9 | 0.00 | 0.00 | 0.00 | 56 | 1019.2 |
| 20260507180530 | 66 | 0 | 0.0 | 1.7 | 0.00 | 0.00 | 0.00 | 57 | 1019.1 |
| 20260507180048 | 66 | 0 | 0.0 | 2.6 | 0.00 | 0.00 | 0.00 | 57 | 1019.2 |
| 20260507175532 | 66 | 78 | 0.9 | 2.6 | 0.00 | 0.00 | 0.00 | 56 | 1019.0 |
| 20260507175030 | 67 | 78 | 0.0 | 1.7 | 0.00 | 0.00 | 0.00 | 56 | 1019.1 |
| 20260507174543 | 67 | 0 | 0.0 | 3.5 | 0.00 | 0.00 | 0.00 | 55 | 1019.1 |
| 20260507174030 | 67 | 0 | 0.0 | 3.5 | 0.00 | 0.00 | 0.00 | 55 | 1018.9 |
| 20260507173531 | 67 | 77 | 0.0 | 3.5 | 0.00 | 0.00 | 0.00 | 55 | 1018.9 |
| 20260507173043 | 67 | 88 | 1.7 | 4.3 | 0.00 | 0.00 | 0.00 | 55 | 1018.9 |
| 20260507172531 | 67 | 76 | 2.6 | 4.3 | 0.00 | 0.00 | 0.00 | 54 | 1018.8 |
| 20260507172030 | 67 | 49 | 1.7 | 3.5 | 0.00 | 0.00 | 0.00 | 55 | 1018.8 |
| 20260507171542 | 67 | 55 | 0.9 | 3.5 | 0.00 | 0.00 | 0.00 | 54 | 1018.7 |
| 20260507171029 | 68 | 69 | 0.9 | 2.6 | 0.00 | 0.00 | 0.00 | 53 | 1018.6 |
| 20260507170529 | 68 | 67 | 1.7 | 4.3 | 0.00 | 0.00 | 0.00 | 51 | 1018.5 |
| 20260507170042 | 68 | 67 | 1.7 | 4.3 | 0.00 | 0.00 | 0.00 | 52 | 1018.5 |
| 20260507165534 | 68 | 67 | 1.7 | 3.5 | 0.00 | 0.00 | 0.00 | 52 | 1018.5 |
| 20260507165031 | 68 | 71 | 1.7 | 3.5 | 0.00 | 0.00 | 0.00 | 51 | 1018.5 |
| 20260507164547 | 68 | 0 | 0.9 | 2.6 | 0.00 | 0.00 | 0.00 | 50 | 1018.5 |
| 20260507164029 | 68 | 0 | 0.9 | 2.6 | 0.00 | 0.00 | 0.00 | 51 | 1018.6 |
| 20260507163529 | 68 | 63 | 0.9 | 2.6 | 0.00 | 0.00 | 0.00 | 51 | 1018.6 |
| 20260507163046 | 68 | 57 | 0.0 | 2.6 | 0.00 | 0.00 | 0.00 | 52 | 1018.6 |
| 20260507162534 | 69 | 0 | 0.9 | 2.6 | 0.00 | 0.00 | 0.00 | 52 | 1018.6 |
| 20260507162032 | 69 | 0 | 0.0 | 1.7 | 0.00 | 0.00 | 0.00 | 52 | 1018.6 |
| 20260507161545 | 69 | 0 | 0.0 | 1.7 | 0.00 | 0.00 | 0.00 | 51 | 1018.6 |
| 20260507161029 | 69 | 57 | 0.0 | 2.6 | 0.00 | 0.00 | 0.00 | 51 | 1018.6 |
| 20260507160531 | 70 | 0 | 0.0 | 2.6 | 0.00 | 0.00 | 0.00 | 51 | 1018.5 |
| 20260507160045 | 70 | 66 | 0.0 | 2.6 | 0.00 | 0.00 | 0.00 | 50 | 1018.7 |
| 20260507155529 | 71 | 0 | 0.0 | 3.5 | 0.00 | 0.00 | 0.00 | 50 | 1018.6 |
| 20260507155031 | 71 | 64 | 0.9 | 3.5 | 0.00 | 0.00 | 0.00 | 50 | 1018.6 |
| 20260507154544 | 72 | 0 | 0.0 | 2.6 | 0.00 | 0.00 | 0.00 | 49 | 1018.7 |
| 20260507154032 | 73 | 22 | 0.0 | 2.6 | 0.00 | 0.00 | 0.00 | 47 | 1018.8 |
| 20260507153530 | 73 | 0 | 0.0 | 2.6 | 0.00 | 0.00 | 0.00 | 45 | 1018.8 |
| 20260507153041 | 74 | 22 | 0.0 | 1.7 | 0.00 | 0.00 | 0.00 | 44 | 1018.8 |
| 20260507152530 | 74 | 349 | 0.9 | 1.7 | 0.00 | 0.00 | 0.00 | 43 | 1018.7 |
| 20260507152031 | 75 | 0 | 0.0 | 0.0 | 0.00 | 0.00 | 0.00 | 44 | 1018.8 |
| 20260507151547 | 74 | 0 | 0.0 | 2.6 | 0.00 | 0.00 | 0.00 | 43 | 1018.7 |
| 20260507151030 | 74 | 0 | 0.0 | 2.6 | 0.00 | 0.00 | 0.00 | 42 | 1018.9 |
| 20260507150531 | 74 | 351 | 0.0 | 3.5 | 0.00 | 0.00 | 0.00 | 44 | 1018.8 |
| 20260507150045 | 75 | 0 | 0.0 | 3.5 | 0.00 | 0.00 | 0.00 | 45 | 1018.9 |
| 20260507145531 | 75 | 331 | 0.9 | 4.3 | 0.00 | 0.00 | 0.00 | 44 | 1018.9 |
| 20260507145030 | 75 | 349 | 1.7 | 4.3 | 0.00 | 0.00 | 0.00 | 44 | 1019.1 |
| 20260507144542 | 75 | 289 | 0.9 | 3.5 | 0.00 | 0.00 | 0.00 | 45 | 1019.1 |
| 20260507144030 | 76 | 300 | 1.7 | 4.3 | 0.00 | 0.00 | 0.00 | 43 | 1019.1 |
| 20260507143530 | 76 | 324 | 1.7 | 4.3 | 0.00 | 0.00 | 0.00 | 42 | 1019.2 |
| 20260507143043 | 76 | 328 | 1.7 | 4.3 | 0.00 | 0.00 | 0.00 | 44 | 1019.2 |
| 20260507142530 | 75 | 339 | 0.9 | 3.5 | 0.00 | 0.00 | 0.00 | 47 | 1019.2 |
| 20260507142030 | 75 | 232 | 0.9 | 3.5 | 0.00 | 0.00 | 0.00 | 47 | 1019.3 |
| 20260507141539 | 75 | 0 | 0.0 | 3.5 | 0.00 | 0.00 | 0.00 | 47 | 1019.3 |
| 20260507141030 | 75 | 22 | 0.9 | 3.5 | 0.00 | 0.00 | 0.00 | 46 | 1019.2 |
| 20260507140529 | 75 | 0 | 0.9 | 3.5 | 0.00 | 0.00 | 0.00 | 46 | 1019.3 |
| 20260507140101 | 75 | 346 | 0.0 | 3.5 | 0.00 | 0.00 | 0.00 | 48 | 1019.3 |
| 20260507135530 | 75 | 5 | 0.9 | 3.5 | 0.00 | 0.00 | 0.00 | 48 | 1019.1 |
| 20260507135030 | 75 | 360 | 0.9 | 2.6 | 0.00 | 0.00 | 0.00 | 49 | 1019.1 |
| 20260507134546 | 75 | 332 | 0.9 | 3.5 | 0.00 | 0.00 | 0.00 | 49 | 1019.1 |
| 20260507134032 | 75 | 333 | 0.9 | 3.5 | 0.00 | 0.00 | 0.00 | 50 | 1019.2 |
| 20260507133530 | 75 | 0 | 0.0 | 3.5 | 0.00 | 0.00 | 0.00 | 49 | 1019.3 |
| 20260507133043 | 75 | 223 | 1.7 | 5.2 | 0.00 | 0.00 | 0.00 | 45 | 1019.4 |
| 20260507132529 | 74 | 244 | 2.6 | 5.2 | 0.00 | 0.00 | 0.00 | 46 | 1019.3 |
| 20260507132029 | 74 | 234 | 0.9 | 3.5 | 0.00 | 0.00 | 0.00 | 51 | 1019.5 |
| 20260507131546 | 73 | 5 | 0.0 | 1.7 | 0.00 | 0.00 | 0.00 | 54 | 1019.5 |
| 20260507131030 | 72 | 0 | 0.0 | 2.6 | 0.00 | 0.00 | 0.00 | 56 | 1019.5 |
| 20260507130531 | 72 | 0 | 0.9 | 2.6 | 0.00 | 0.00 | 0.00 | 57 | 1019.5 |
| 20260507130042 | 71 | 42 | 0.0 | 2.6 | 0.00 | 0.00 | 0.00 | 59 | 1019.5 |
| 20260507125531 | 71 | 39 | 0.0 | 3.5 | 0.00 | 0.00 | 0.00 | 60 | 1019.3 |
| 20260507125030 | 70 | 53 | 0.9 | 3.5 | 0.00 | 0.00 | 0.00 | 61 | 1019.3 |
| 20260507124540 | 70 | 43 | 1.7 | 5.2 | 0.00 | 0.00 | 0.00 | 61 | 1019.4 |
| 20260507124030 | 70 | 31 | 1.7 | 5.2 | 0.00 | 0.00 | 0.00 | 62 | 1019.3 |
| 20260507123734 | 69 | 36 | 2.6 | 5.2 | 0.00 | 0.00 | 0.00 | 62 | 1019.2 |
| 20260507115033 | 70 | 44 | 2.6 | 7.8 | 0.00 | 0.00 | 0.00 | 59 | 1019.3 |
| 20260507114542 | 71 | 17 | 3.5 | 7.8 | 0.00 | 0.00 | 0.00 | 58 | 1019.2 |
| 20260507114029 | 71 | 10 | 3.5 | 7.0 | 0.00 | 0.00 | 0.00 | 58 | 1019.3 |
| 20260507113531 | 71 | 63 | 3.5 | 9.6 | 0.00 | 0.00 | 0.00 | 58 | 1019.2 |
| 20260507113042 | 71 | 49 | 3.5 | 9.6 | 0.00 | 0.00 | 0.00 | 58 | 1019.3 |
| 20260507112533 | 71 | 339 | 4.3 | 9.6 | 0.00 | 0.00 | 0.00 | 57 | 1019.4 |
| 20260507112032 | 72 | 0 | 3.5 | 7.8 | 0.00 | 0.00 | 0.00 | 59 | 1019.3 |
| 20260507111545 | 72 | 46 | 3.5 | 8.7 | 0.00 | 0.00 | 0.00 | 58 | 1019.3 |
| 20260507111030 | 71 | 56 | 5.2 | 8.7 | 0.00 | 0.00 | 0.00 | 57 | 1019.2 |
| 20260507110529 | 71 | 69 | 4.3 | 8.7 | 0.00 | 0.00 | 0.00 | 58 | 1019.3 |
| 20260507110051 | 71 | 34 | 4.3 | 9.6 | 0.00 | 0.00 | 0.00 | 59 | 1019.4 |
| 20260507105529 | 71 | 35 | 3.5 | 9.6 | 0.00 | 0.00 | 0.00 | 58 | 1019.3 |
| 20260507105031 | 71 | 38 | 2.6 | 7.8 | 0.00 | 0.00 | 0.00 | 60 | 1019.3 |
| 20260507104546 | 71 | 73 | 3.5 | 7.8 | 0.00 | 0.00 | 0.00 | 60 | 1019.3 |
| 20260507104030 | 71 | 67 | 2.6 | 7.8 | 0.00 | 0.00 | 0.00 | 60 | 1019.3 |
| 20260507103529 | 71 | 59 | 3.5 | 7.8 | 0.00 | 0.00 | 0.00 | 61 | 1019.3 |
| 20260507103043 | 71 | 40 | 1.7 | 7.8 | 0.00 | 0.00 | 0.00 | 61 | 1019.4 |
| 20260507102530 | 70 | 83 | 3.5 | 7.8 | 0.00 | 0.00 | 0.00 | 61 | 1019.3 |
| 20260507102029 | 70 | 63 | 3.5 | 8.7 | 0.00 | 0.00 | 0.00 | 60 | 1019.2 |
| 20260507101558 | 70 | 98 | 4.3 | 8.7 | 0.00 | 0.00 | 0.00 | 60 | 1019.2 |
| 20260507101030 | 70 | 57 | 4.3 | 8.7 | 0.00 | 0.00 | 0.00 | 60 | 1019.3 |
| 20260507100529 | 70 | 76 | 3.5 | 9.6 | 0.00 | 0.00 | 0.00 | 61 | 1019.3 |
| 20260507100047 | 70 | 27 | 4.3 | 9.6 | 0.00 | 0.00 | 0.00 | 60 | 1019.3 |
| 20260507095532 | 70 | 54 | 4.3 | 8.7 | 0.00 | 0.00 | 0.00 | 60 | 1019.2 |
| 20260507095030 | 70 | 5 | 4.3 | 8.7 | 0.00 | 0.00 | 0.00 | 59 | 1019.3 |
| 20260507094556 | 70 | 53 | 2.6 | 9.6 | 0.00 | 0.00 | 0.00 | 60 | 1019.2 |
| 20260507094031 | 70 | 71 | 4.3 | 9.6 | 0.00 | 0.00 | 0.00 | 58 | 1019.2 |
| 20260507093531 | 71 | 50 | 5.2 | 9.6 | 0.00 | 0.00 | 0.00 | 57 | 1019.2 |
| 20260507093046 | 71 | 74 | 3.5 | 9.6 | 0.00 | 0.00 | 0.00 | 58 | 1019.2 |
| 20260507092534 | 71 | 35 | 5.2 | 9.6 | 0.00 | 0.00 | 0.00 | 58 | 1019.2 |
| 20260507092029 | 71 | 32 | 3.5 | 8.7 | 0.00 | 0.00 | 0.00 | 60 | 1019.1 |
| 20260507091558 | 70 | 24 | 2.6 | 8.7 | 0.00 | 0.00 | 0.00 | 62 | 1019.2 |
| 20260507091029 | 70 | 34 | 4.3 | 8.7 | 0.00 | 0.00 | 0.00 | 62 | 1019.1 |
| 20260507090533 | 70 | 50 | 4.3 | 10.4 | 0.00 | 0.00 | 0.00 | 63 | 1019.2 |
| 20260507090105 | 69 | 42 | 5.2 | 10.4 | 0.00 | 0.00 | 0.00 | 63 | 1019.3 |
| 20260507085529 | 69 | 36 | 4.3 | 10.4 | 0.00 | 0.00 | 0.00 | 64 | 1019.4 |
| 20260507085030 | 69 | 44 | 5.2 | 10.4 | 0.00 | 0.00 | 0.00 | 64 | 1019.3 |
| 20260507084541 | 68 | 56 | 4.3 | 9.6 | 0.00 | 0.00 | 0.00 | 66 | 1019.4 |
| 20260507084030 | 68 | 34 | 5.2 | 9.6 | 0.00 | 0.00 | 0.00 | 68 | 1019.5 |
| 20260507083529 | 67 | 43 | 4.3 | 11.3 | 0.00 | 0.00 | 0.00 | 68 | 1019.4 |
| 20260507083047 | 67 | 57 | 5.2 | 11.3 | 0.00 | 0.00 | 0.00 | 68 | 1019.5 |
| 20260507082528 | 67 | 61 | 6.1 | 11.3 | 0.00 | 0.00 | 0.00 | 68 | 1019.4 |
| 20260507082030 | 67 | 55 | 6.1 | 10.4 | 0.00 | 0.00 | 0.00 | 68 | 1019.4 |
| 20260507081554 | 67 | 30 | 7.0 | 11.3 | 0.00 | 0.00 | 0.00 | 67 | 1019.3 |
| 20260507081030 | 67 | 45 | 5.2 | 11.3 | 0.00 | 0.00 | 0.00 | 68 | 1019.3 |
| 20260507080529 | 67 | 21 | 5.2 | 12.2 | 0.00 | 0.00 | 0.00 | 69 | 1019.2 |
| 20260507080051 | 67 | 57 | 5.2 | 12.2 | 0.00 | 0.00 | 0.00 | 70 | 1019.2 |
| 20260507075530 | 67 | 14 | 5.2 | 10.4 | 0.00 | 0.00 | 0.00 | 71 | 1019.2 |
| 20260507075031 | 66 | 75 | 5.2 | 12.2 | 0.00 | 0.00 | 0.00 | 71 | 1019.2 |
| 20260507074544 | 66 | 47 | 5.2 | 13.0 | 0.00 | 0.00 | 0.00 | 71 | 1019.2 |
| 20260507074031 | 66 | 43 | 5.2 | 13.0 | 0.00 | 0.00 | 0.00 | 69 | 1019.3 |
| 20260507073530 | 66 | 10 | 7.0 | 13.0 | 0.00 | 0.00 | 0.00 | 68 | 1019.2 |
| 20260507073058 | 66 | 51 | 5.2 | 12.2 | 0.00 | 0.00 | 0.00 | 68 | 1019.2 |
| 20260507072529 | 66 | 26 | 7.0 | 11.3 | 0.00 | 0.00 | 0.00 | 67 | 1019.2 |
| 20260507072029 | 66 | 67 | 6.1 | 11.3 | 0.00 | 0.00 | 0.00 | 67 | 1019.1 |
| 20260507071546 | 66 | 54 | 7.0 | 11.3 | 0.00 | 0.00 | 0.00 | 67 | 1019.2 |
| 20260507071030 | 67 | 52 | 6.1 | 10.4 | 0.00 | 0.00 | 0.00 | 67 | 1019.2 |
| 20260507070530 | 67 | 42 | 5.2 | 10.4 | 0.00 | 0.00 | 0.00 | 69 | 1019.2 |
| 20260507070121 | 67 | 22 | 4.3 | 9.6 | 0.00 | 0.00 | 0.00 | 70 | 1019.2 |
| 20260507065529 | 67 | 25 | 5.2 | 9.6 | 0.00 | 0.00 | 0.00 | 71 | 1019.1 |
| 20260507065029 | 66 | 48 | 5.2 | 12.2 | 0.00 | 0.00 | 0.00 | 72 | 1019.3 |
| 20260507064549 | 66 | 22 | 4.3 | 12.2 | 0.00 | 0.00 | 0.00 | 72 | 1019.2 |
| 20260507064030 | 66 | 34 | 5.2 | 10.4 | 0.00 | 0.00 | 0.00 | 72 | 1019.2 |
| 20260507063530 | 66 | 48 | 6.1 | 10.4 | 0.00 | 0.00 | 0.00 | 72 | 1019.3 |
| 20260507063041 | 66 | 36 | 4.3 | 9.6 | 0.00 | 0.00 | 0.00 | 73 | 1019.2 |
| 20260507062531 | 65 | 47 | 4.3 | 10.4 | 0.00 | 0.00 | 0.00 | 74 | 1019.2 |
| 20260507062029 | 65 | 29 | 4.3 | 10.4 | 0.00 | 0.00 | 0.00 | 74 | 1019.2 |
| 20260507061542 | 65 | 68 | 4.3 | 9.6 | 0.00 | 0.00 | 0.00 | 74 | 1019.2 |
| 20260507061029 | 65 | 69 | 3.5 | 10.4 | 0.00 | 0.00 | 0.00 | 75 | 1019.2 |
| 20260507060529 | 65 | 69 | 3.5 | 10.4 | 0.00 | 0.00 | 0.00 | 74 | 1019.2 |
| 20260507060040 | 64 | 32 | 5.2 | 10.4 | 0.00 | 0.00 | 0.00 | 74 | 1019.3 |
| 20260507055530 | 64 | 44 | 4.3 | 10.4 | 0.00 | 0.00 | 0.00 | 74 | 1019.2 |
| 20260507055031 | 64 | 50 | 4.3 | 10.4 | 0.00 | 0.00 | 0.00 | 74 | 1019.2 |
| 20260507054552 | 64 | 53 | 5.2 | 10.4 | 0.00 | 0.00 | 0.00 | 74 | 1019.2 |
| 20260507054030 | 64 | 25 | 3.5 | 10.4 | 0.00 | 0.00 | 0.00 | 75 | 1019.2 |
| 20260507053530 | 63 | 57 | 5.2 | 10.4 | 0.00 | 0.00 | 0.00 | 75 | 1019.0 |
| 20260507053044 | 63 | 46 | 5.2 | 9.6 | 0.00 | 0.00 | 0.00 | 76 | 1019.0 |
| 20260507052529 | 63 | 37 | 4.3 | 9.6 | 0.00 | 0.00 | 0.00 | 77 | 1019.1 |
| 20260507052030 | 63 | 61 | 5.2 | 9.6 | 0.00 | 0.00 | 0.00 | 77 | 1019.0 |
| 20260507051545 | 63 | 43 | 4.3 | 8.7 | 0.00 | 0.00 | 0.00 | 77 | 1019.0 |
| 20260507051029 | 63 | 74 | 3.5 | 8.7 | 0.00 | 0.00 | 0.00 | 77 | 1018.9 |
| 20260507050529 | 62 | 34 | 3.5 | 7.8 | 0.00 | 0.00 | 0.00 | 77 | 1018.9 |
| 20260507050043 | 62 | 49 | 2.6 | 7.8 | 0.00 | 0.00 | 0.00 | 77 | 1018.8 |
| 20260507045533 | 62 | 67 | 3.5 | 7.8 | 0.00 | 0.00 | 0.00 | 76 | 1018.8 |
| 20260507045034 | 61 | 35 | 2.6 | 7.8 | 0.00 | 0.00 | 0.00 | 76 | 1018.7 |
| 20260507044546 | 61 | 49 | 2.6 | 7.8 | 0.00 | 0.00 | 0.00 | 76 | 1018.7 |
| 20260507044029 | 61 | 26 | 3.5 | 7.8 | 0.00 | 0.00 | 0.00 | 76 | 1018.7 |
| 20260507043530 | 60 | 23 | 3.5 | 7.0 | 0.00 | 0.00 | 0.00 | 77 | 1018.8 |
| 20260507043047 | 60 | 51 | 3.5 | 7.0 | 0.00 | 0.00 | 0.00 | 78 | 1018.6 |
| 20260507042530 | 59 | 64 | 1.7 | 7.0 | 0.00 | 0.00 | 0.00 | 80 | 1018.6 |
| 20260507042030 | 59 | 53 | 2.6 | 7.0 | 0.00 | 0.00 | 0.00 | 80 | 1018.6 |
| 20260507041547 | 58 | 62 | 3.5 | 7.0 | 0.00 | 0.00 | 0.00 | 81 | 1018.5 |
| 20260507041030 | 58 | 56 | 2.6 | 7.0 | 0.00 | 0.00 | 0.00 | 81 | 1018.5 |
| 20260507040528 | 57 | 63 | 1.7 | 6.1 | 0.00 | 0.00 | 0.00 | 81 | 1018.3 |
| 20260507040049 | 57 | 55 | 2.6 | 6.1 | 0.00 | 0.00 | 0.00 | 81 | 1018.4 |
| 20260507035529 | 56 | 57 | 2.6 | 6.1 | 0.00 | 0.00 | 0.00 | 81 | 1018.2 |
| 20260507035030 | 56 | 92 | 2.6 | 6.1 | 0.00 | 0.00 | 0.00 | 80 | 1018.1 |
| 20260507034546 | 56 | 53 | 3.5 | 6.1 | 0.00 | 0.00 | 0.00 | 81 | 1018.0 |
| 20260507034029 | 55 | 76 | 2.6 | 4.3 | 0.00 | 0.00 | 0.00 | 81 | 1018.0 |
| 20260507033529 | 55 | 55 | 1.7 | 4.3 | 0.00 | 0.00 | 0.00 | 81 | 1017.8 |
| 20260507033041 | 55 | 63 | 2.6 | 4.3 | 0.00 | 0.00 | 0.00 | 81 | 1017.8 |
| 20260507032530 | 55 | 72 | 2.6 | 4.3 | 0.00 | 0.00 | 0.00 | 82 | 1017.7 |
| 20260507032029 | 55 | 69 | 1.7 | 5.2 | 0.00 | 0.00 | 0.00 | 82 | 1017.7 |
| 20260507031546 | 55 | 71 | 1.7 | 6.1 | 0.00 | 0.00 | 0.00 | 82 | 1017.7 |
| 20260507031034 | 55 | 63 | 1.7 | 6.1 | 0.00 | 0.00 | 0.00 | 83 | 1017.6 |
| 20260507030530 | 55 | 60 | 2.6 | 6.1 | 0.00 | 0.00 | 0.00 | 84 | 1017.6 |
| 20260507030058 | 55 | 75 | 1.7 | 3.5 | 0.00 | 0.00 | 0.00 | 83 | 1017.5 |
| 20260507025530 | 55 | 76 | 0.9 | 3.5 | 0.00 | 0.00 | 0.00 | 83 | 1017.5 |
| 20260507025030 | 56 | 76 | 2.6 | 3.5 | 0.00 | 0.00 | 0.00 | 83 | 1017.5 |
| 20260507024545 | 56 | 80 | 1.7 | 5.2 | 0.00 | 0.00 | 0.00 | 83 | 1017.4 |
| 20260507024030 | 56 | 0 | 1.7 | 5.2 | 0.00 | 0.00 | 0.00 | 84 | 1017.3 |
| 20260507023533 | 57 | 82 | 1.7 | 4.3 | 0.00 | 0.00 | 0.00 | 85 | 1017.4 |
| 20260507023043 | 57 | 0 | 0.9 | 4.3 | 0.00 | 0.00 | 0.00 | 85 | 1017.4 |
| 20260507022530 | 57 | 66 | 2.6 | 4.3 | 0.00 | 0.00 | 0.00 | 85 | 1017.3 |
| 20260507022030 | 57 | 83 | 1.7 | 4.3 | 0.00 | 0.00 | 0.00 | 84 | 1017.4 |
| 20260507021542 | 57 | 83 | 1.7 | 4.3 | 0.00 | 0.00 | 0.00 | 84 | 1017.3 |
| 20260507021030 | 56 | 78 | 1.7 | 3.5 | 0.00 | 0.00 | 0.00 | 83 | 1017.3 |
| 20260507020529 | 56 | 0 | 0.9 | 3.5 | 0.00 | 0.00 | 0.00 | 82 | 1017.3 |
| 20260507020050 | 56 | 82 | 1.7 | 3.5 | 0.00 | 0.00 | 0.00 | 81 | 1017.5 |
| 20260507015531 | 56 | 86 | 0.9 | 3.5 | 0.00 | 0.00 | 0.00 | 80 | 1017.4 |
| 20260507015031 | 56 | 78 | 1.7 | 3.5 | 0.00 | 0.00 | 0.00 | 80 | 1017.3 |
| 20260507014553 | 56 | 0 | 0.9 | 4.3 | 0.00 | 0.00 | 0.00 | 80 | 1017.3 |
| 20260507014030 | 56 | 68 | 1.7 | 4.3 | 0.00 | 0.00 | 0.00 | 80 | 1017.3 |
| 20260507013529 | 56 | 65 | 2.6 | 4.3 | 0.00 | 0.00 | 0.00 | 80 | 1017.3 |
| 20260507013039 | 56 | 55 | 1.7 | 4.3 | 0.00 | 0.00 | 0.00 | 80 | 1017.3 |
| 20260507012530 | 56 | 66 | 1.7 | 4.3 | 0.00 | 0.00 | 0.00 | 81 | 1017.3 |
| 20260507012031 | 57 | 53 | 0.9 | 4.3 | 0.00 | 0.00 | 0.00 | 81 | 1017.1 |
| 20260507011545 | 57 | 71 | 1.7 | 4.3 | 0.00 | 0.00 | 0.00 | 81 | 1017.3 |
| 20260507011029 | 57 | 63 | 1.7 | 5.2 | 0.00 | 0.00 | 0.00 | 81 | 1017.2 |
| 20260507010533 | 57 | 68 | 2.6 | 5.2 | 0.00 | 0.00 | 0.00 | 80 | 1017.2 |
| 20260507010059 | 57 | 58 | 2.6 | 4.3 | 0.00 | 0.00 | 0.00 | 80 | 1017.3 |
| 20260507005530 | 57 | 41 | 1.7 | 4.3 | 0.00 | 0.00 | 0.00 | 79 | 1017.2 |
| 20260507005029 | 56 | 52 | 1.7 | 4.3 | 0.00 | 0.00 | 0.00 | 77 | 1017.3 |
| 20260507004544 | 56 | 68 | 1.7 | 4.3 | 0.00 | 0.00 | 0.00 | 75 | 1017.3 |
| 20260507004030 | 56 | 51 | 2.6 | 4.3 | 0.00 | 0.00 | 0.00 | 75 | 1017.3 |
| 20260507003530 | 57 | 67 | 1.7 | 4.3 | 0.00 | 0.00 | 0.00 | 76 | 1017.2 |
| 20260507003042 | 57 | 55 | 1.7 | 6.1 | 0.00 | 0.00 | 0.00 | 77 | 1017.2 |
| 20260507002532 | 57 | 73 | 1.7 | 6.1 | 0.00 | 0.00 | 0.00 | 77 | 1017.3 |
| 20260507002031 | 56 | 61 | 2.6 | 6.1 | 0.00 | 0.00 | 0.00 | 76 | 1017.4 |
| 20260507001550 | 56 | 59 | 2.6 | 4.3 | 0.00 | 0.00 | 0.00 | 75 | 1017.3 |
| 20260507001029 | 56 | 63 | 1.7 | 4.3 | 0.00 | 0.00 | 0.00 | 74 | 1017.2 |
| 20260507000531 | 56 | 70 | 1.7 | 3.5 | 0.00 | 0.00 | 0.00 | 74 | 1017.2 |
| 20260507000046 | 56 | 67 | 1.7 | 5.2 | 0.00 | 0.00 | 0.00 | 74 | 1017.3 |
| 20260506235530 | 56 | 67 | 1.7 | 5.2 | 0.00 | 0.00 | 0.00 | 74 | 1017.3 |
| 20260506235030 | 57 | 68 | 1.7 | 5.2 | 0.00 | 0.00 | 0.00 | 74 | 1017.4 |
| 20260506234543 | 57 | 63 | 1.7 | 4.3 | 0.00 | 0.00 | 0.00 | 74 | 1017.5 |
| 20260506234029 | 57 | 64 | 1.7 | 5.2 | 0.00 | 0.00 | 0.00 | 74 | 1017.6 |
| 20260506233530 | 57 | 78 | 2.6 | 5.2 | 0.00 | 0.00 | 0.00 | 75 | 1017.7 |
| 20260506233041 | 57 | 51 | 2.6 | 4.3 | 0.00 | 0.00 | 0.00 | 73 | 1017.6 |
| 20260506232529 | 56 | 74 | 1.7 | 3.5 | 0.00 | 0.00 | 0.00 | 69 | 1017.6 |
| 20260506232029 | 56 | 76 | 1.7 | 3.5 | 0.00 | 0.00 | 0.00 | 66 | 1017.6 |
| 20260506231542 | 56 | 76 | 1.7 | 4.3 | 0.00 | 0.00 | 0.00 | 65 | 1017.7 |
| 20260506231032 | 56 | 76 | 1.7 | 4.3 | 0.00 | 0.00 | 0.00 | 67 | 1017.5 |
| 20260506230529 | 56 | 78 | 1.7 | 4.3 | 0.00 | 0.00 | 0.00 | 68 | 1017.6 |
| 20260506230053 | 56 | 73 | 1.7 | 3.5 | 0.00 | 0.00 | 0.00 | 69 | 1017.6 |
| 20260506225530 | 55 | 74 | 1.7 | 3.5 | 0.00 | 0.00 | 0.00 | 70 | 1017.7 |
| 20260506225031 | 55 | 64 | 1.7 | 2.6 | 0.00 | 0.00 | 0.00 | 71 | 1017.8 |
| 20260506224545 | 55 | 0 | 0.0 | 2.6 | 0.00 | 0.00 | 0.00 | 72 | 1017.8 |
| 20260506224028 | 55 | 59 | 0.9 | 3.5 | 0.00 | 0.00 | 0.00 | 73 | 1017.7 |
| 20260506223529 | 55 | 59 | 0.0 | 3.5 | 0.00 | 0.00 | 0.00 | 74 | 1017.7 |
| 20260506223046 | 55 | 59 | 0.9 | 2.6 | 0.00 | 0.00 | 0.00 | 73 | 1017.8 |
| 20260506222531 | 54 | 62 | 0.0 | 1.7 | 0.00 | 0.00 | 0.00 | 73 | 1017.9 |
| 20260506222029 | 54 | 0 | 0.0 | 0.9 | 0.00 | 0.00 | 0.00 | 71 | 1017.9 |
| 20260506221544 | 54 | 0 | 0.0 | 0.9 | 0.00 | 0.00 | 0.00 | 70 | 1018.0 |
| 20260506221034 | 54 | 0 | 0.0 | 0.0 | 0.00 | 0.00 | 0.00 | 70 | 1018.0 |
| 20260506220529 | 54 | 0 | 0.0 | 0.0 | 0.00 | 0.00 | 0.00 | 69 | 1018.0 |
| 20260506220044 | 54 | 0 | 0.0 | 0.0 | 0.00 | 0.00 | 0.00 | 69 | 1018.1 |
| 20260506215531 | 54 | 0 | 0.0 | 0.0 | 0.00 | 0.00 | 0.00 | 68 | 1018.0 |
| 20260506215029 | 55 | 0 | 0.0 | 0.0 | 0.00 | 0.00 | 0.00 | 69 | 1018.0 |
| 20260506214540 | 55 | 0 | 0.0 | 0.0 | 0.00 | 0.00 | 0.00 | 69 | 1018.0 |
| 20260506214031 | 55 | 0 | 0.0 | 0.0 | 0.00 | 0.00 | 0.00 | 70 | 1018.0 |
| 20260506213531 | 56 | 0 | 0.0 | 0.0 | 0.00 | 0.00 | 0.00 | 70 | 1018.0 |
| 20260506213045 | 56 | 0 | 0.0 | 0.0 | 0.00 | 0.00 | 0.00 | 70 | 1018.0 |
| 20260506212531 | 56 | 0 | 0.0 | 1.7 | 0.00 | 0.00 | 0.00 | 70 | 1018.0 |
| 20260506212031 | 56 | 0 | 0.0 | 1.7 | 0.00 | 0.00 | 0.00 | 71 | 1018.0 |
| 20260506211546 | 56 | 55 | 0.0 | 1.7 | 0.00 | 0.00 | 0.00 | 71 | 1018.0 |
| 20260506211030 | 56 | 0 | 0.0 | 1.7 | 0.00 | 0.00 | 0.00 | 71 | 1018.0 |
| 20260506210532 | 56 | 0 | 0.0 | 2.6 | 0.00 | 0.00 | 0.00 | 71 | 1017.9 |
| 20260506210049 | 56 | 0 | 0.9 | 4.3 | 0.00 | 0.00 | 0.00 | 70 | 1017.9 |
| 20260506205531 | 56 | 55 | 1.7 | 4.3 | 0.00 | 0.00 | 0.00 | 69 | 1018.0 |
| 20260506205030 | 55 | 49 | 0.9 | 3.5 | 0.00 | 0.00 | 0.00 | 71 | 1017.9 |
| 20260506204542 | 55 | 0 | 0.0 | 0.0 | 0.00 | 0.00 | 0.00 | 72 | 1017.9 |
| 20260506204029 | 56 | 0 | 0.0 | 0.0 | 0.00 | 0.00 | 0.00 | 72 | 1017.9 |
| 20260506203532 | 56 | 0 | 0.0 | 0.0 | 0.00 | 0.00 | 0.00 | 72 | 1017.9 |
| 20260506203051 | 56 | 0 | 0.0 | 0.0 | 0.00 | 0.00 | 0.00 | 72 | 1017.8 |
| 20260506202529 | 56 | 0 | 0.0 | 0.0 | 0.00 | 0.00 | 0.00 | 72 | 1018.0 |
| 20260506202029 | 56 | 0 | 0.0 | 0.0 | 0.00 | 0.00 | 0.00 | 73 | 1018.0 |
| 20260506201604 | 56 | 0 | 0.0 | 0.0 | 0.00 | 0.00 | 0.00 | 72 | 1018.0 |
| 20260506201032 | 56 | 0 | 0.0 | 0.0 | 0.00 | 0.00 | 0.00 | 72 | 1017.9 |
| 20260506200529 | 56 | 0 | 0.0 | 0.0 | 0.00 | 0.00 | 0.00 | 72 | 1017.9 |
| 20260506200046 | 57 | 0 | 0.0 | 0.0 | 0.00 | 0.00 | 0.00 | 72 | 1017.9 |
| 20260506195531 | 56 | 0 | 0.0 | 0.0 | 0.00 | 0.00 | 0.00 | 73 | 1017.8 |
| 20260506195032 | 57 | 0 | 0.0 | 0.9 | 0.00 | 0.00 | 0.00 | 73 | 1017.8 |
| 20260506194551 | 57 | 0 | 0.0 | 0.9 | 0.00 | 0.00 | 0.00 | 74 | 1017.7 |
| 20260506194030 | 57 | 0 | 0.0 | 0.9 | 0.00 | 0.00 | 0.00 | 74 | 1017.8 |
| 20260506193530 | 57 | 0 | 0.0 | 0.0 | 0.00 | 0.00 | 0.00 | 74 | 1017.7 |
| 20260506193045 | 57 | 0 | 0.0 | 0.0 | 0.00 | 0.00 | 0.00 | 74 | 1017.7 |